Location: Nianha
(10.8000°N, 4.6333°W)
Time: 13:33:47
(UTC+00:00)

Okean 3 Rocket - Pass Details

Date: 14 November 2019
Orbit: 616 x 644 km, 82.5° (Epoch: 24 January)

Event Time Altitude Azimuth Distance (km) Brightness Sun altitude
Rises 05:29:33 0° 193° (SSW) 2,942 7.1 -11.2°
Reaches altitude 10° 05:31:50 10° 198° (SSW) 2,034 6.2 -10.6°
Maximum altitude 05:36:14 52° 274° (W) 798 3.8 -9.6°
Drops below altitude 10° 05:40:38 10° 351° (N) 2,030 6.0 -8.6°
Sets 05:42:55 0° 356° (N) 2,936 6.8 -8.0°
